YUSAT 1
1 47439U 21006AC 22006.68644450 .00001478 00000-0 84865-4 0 9998
2 47439 97.4625 69.0706 0013812 113.7204 246.5478 15.13990897 52794
SOMP 2b
1 47445U 21006AJ 22006.39715709 .00001439 00000-0 83479-4 0 9996
2 47445 97.4596 68.5513 0013558 117.8111 242.4496 15.13671142 52746
IDEASSat
1 47458U 21006AX 22006.23016103 .00001603 00000-0 92924-4 0 9993
2 47458 97.4686 68.7316 0012654 116.3463 243.9069 15.13532157 52714
RSP-01
1 47925U 98067SB 22006.56366124 .00018848 00000-0 23940-3 0 9990
2 47925 51.6412 47.0089 0002675 48.9666 311.1557 15.59438352 46373
TAUSAT-1
1 47926U 98067SC 22006.67827491 .00025666 00000-0 28877-3 0 9992
2 47926 51.6399 44.0041 0003569 48.5625 311.5675 15.62399186 46412
Tsuru
1 47927U 98067SD 22006.37238205 .00016064 00000-0 21299-3 0 9992
2 47927 51.6405 48.7296 0002638 49.4481 310.6741 15.58424016 46331
STARS-EC
1 47928U 98067SE 22006.48433398 .00029608 00000-0 32649-3 0 9994
2 47928 51.6396 45.7108 0003057 116.8765 243.2542 15.62836238 46361
Maya-2
1 47929U 98067SF 22006.49625445 .00016208 00000-0 21481-3 0 9996
2 47929 51.6406 48.0542 0002740 48.2072 311.9154 15.58427528 46319
OPUSAT-II
1 47930U 98067SG 22006.71194669 .00034011 00000-0 36144-3 0 9996
2 47930 51.6392 43.4931 0003337 38.5448 321.5784 15.63708253 46430
GuaraniSat-1
1 47931U 98067SH 22006.36365188 .00015644 00000-0 20717-3 0 9994
2 47931 51.6415 48.6755 0002728 47.3089 312.8133 15.58479839 46339
CubeSX-Sirius-HSE
1 47951U 21022V 22006.79194073 .00001848 00000-0 12977-3 0 9993
2 47951 97.5461 269.7178 0021126 343.1060 102.3146 15.06198406 43654
CubeSX-HSE
1 47952U 21022W 22006.77560017 .00001716 00000-0 12071-3 0 9996
2 47952 97.5452 269.7121 0021023 343.3197 54.4342 15.06236303 43656
KSU-Cubesat
1 47954U 21022Y 22006.41917141 .00001418 00000-0 10020-3 0 9994
2 47954 97.5454 269.4132 0021038 343.2235 16.8294 15.06350878 43323
GRBAlpha
1 47959U 21022AD 22006.71760700 .00001733 00000-0 12182-3 0 9990
2 47959 97.5458 269.6776 0021023 343.7831 100.5543 15.06244966 42461
Orbicraft-Zorkiy
1 47960U 21022AE 22006.89921171 .00001338 00000-0 94838-4 0 9992
2 47960 97.5463 269.9302 0021203 343.0055 79.2844 15.06322694 43189
STECCO
1 47962U 21022AG 22006.82320525 .00002345 00000-0 15776-3 0 9995
2 47962 97.5428 270.2066 0016346 339.8570 92.5747 15.07614253 42502
DO-111
1 47963U 21022AH 22006.68372505 .00003990 00000-0 25591-3 0 9998
2 47963 97.5450 270.4140 0018457 334.8277 25.2051 15.08939856 42520
MO-110
1 47964U 21022AJ 22006.35924320 .00001624 00000-0 10955-3 0 9991
2 47964 97.5441 269.9006 0018908 336.6042 23.4324 15.07912303 42447
FEES
1 48082U 21022AL 22006.23529732 .00001750 00000-0 11850-3 0 9993
2 48082 97.5452 269.6474 0015095 335.9251 24.1270 15.07712831 42122
RamSat
1 48850U 98067SL 22006.74460073 .00010808 00000-0 16766-3 0 9992
2 48850 51.6414 51.9301 0003131 163.7726 196.3365 15.54556677 32073
MO-112
1 48868U 98067SP 22006.36840614 .00029631 00000-0 35614-3 0 9999
2 48868 51.6394 50.9149 0000856 92.2245 267.8847 15.60602305 30839
TUBIN
1 48900U 21059X 22006.89777859 .00001831 00000-0 10841-3 0 9998
2 48900 97.5324 137.9196 0009043 307.2343 166.6640 15.12650643 29482
IT-SPINS
1 49017U 21013G 22006.59003860 .00002414 00000-0 11298-3 0 9994
2 49017 51.5905 92.4757 0006789 202.4735 157.5945 15.23701759 29080
LEDSAT
1 49069U 21073D 22006.67694193 .00001382 00000-0 94407-4 0 9998
2 49069 97.5442 82.7825 0029174 126.5897 233.8022 15.07479266 21453
CUTE
1 49263U 21088D 22006.41974825 .00001204 00000-0 96611-4 0 9997
2 49263 97.6043 77.5735 0018581 258.0160 101.8982 15.01840612 15096
Binar-1
1 49272U 98067SR 22006.51390580 .00010690 00000-0 17582-3 0 9997
2 49272 51.6416 55.6254 0005459 66.9374 293.2191 15.52935008 14396
Maya-3
1 49273U 98067SS 22006.43253869 .00012915 00000-0 20577-3 0 9997
2 49273 51.6414 55.8328 0005371 62.2168 297.9367 15.53608725 14381
Maya-4
1 49274U 98067ST 22006.43547559 .00012789 00000-0 20432-3 0 9999
2 49274 51.6414 55.8523 0005314 61.1274 299.0249 15.53542187 14383
CUAVA-1
1 49275U 98067SU 22006.77383370 .00016149 00000-0 25685-3 0 9995
2 49275 51.6433 54.1280 0005172 75.8434 32.7572 15.53446893 14387
TeikyoSat 4
1 49396U 21102B 22006.50598486 .00000425 00000-0 38472-4 0 9991
2 49396 97.5540 69.4015 0018901 76.0013 284.3311 15.00287669 8761
Z-Sat
1 49399U 21102E 22006.77312600 .00000611 00000-0 50903-4 0 9995
2 49399 97.5642 69.8438 0021881 61.6580 298.6848 15.02033487 8818
KOSEN 1
1 49402U 21102H 22006.80508469 -.00000053 00000-0 53565-6 0 9994
2 49402 97.5531 69.9130 0023908 51.5082 308.8283 15.02900942 8824
HO-113
1 50466U 21131B 22006.79578638 -.00000007 00000-0 12265-4 0 9990
2 50466 98.5975 84.0261 0003444 269.7660 90.3127 14.38435547 1678
